This demonstration page uses our WeatherBlox Daily Observations layout. Learn more.

Left ArrowRight Arrow

39.12711, -84.51439

Hourly Observations for September 20, 2021

Temp ( °F °C ) Dew Point ( °F °C ) Humidity (%) Winds ( mph kmh ) Pressure ( in mb ) Visibility ( mi km ) Precip ( " mm )
12:53 am 00:53 Mostly Cloudy with Light Rain 72 22.2 69 20.6 91 91 SSE 3 6 30.09 1019 10 16 0.00 0.00
1:53 am 01:53 Mostly Clear with Light Rain 72 22.2 69 20.6 91 91 N N/A 30.08 1019 10 16 0.01 0.25
2:53 am 02:53 Mostly Cloudy 70 21.1 69 20.6 97 97 N N/A 30.06 1018 10 16 0.00 0.00
3:53 am 03:53 Partly Cloudy 70 21.1 69 20.6 97 97 N N/A 30.05 1018 10 16 N/A
4:53 am 04:53 Mostly Cloudy 69 20.6 69 20.6 100 100 N N/A 30.05 1018 10 16 N/A
5:53 am 05:53 Cloudy 70 21.1 69 20.6 97 97 N N/A 30.05 1018 10 16 N/A
6:53 am 06:53 Mostly Cloudy 71 21.7 68 20 90 90 S 6 9 30.06 1018 10 16 0.00 0.00
7:53 am 07:53 Cloudy 70 21.1 68 20 93 93 VRB 3 6 30.06 1018 10 16 N/A
8:53 am 08:53 Mostly Cloudy 71 21.7 68 20 90 90 N N/A 30.07 1018 10 16 N/A
9:53 am 09:53 Mostly Cloudy 73 22.8 69 20.6 87 87 N N/A 30.07 1018 10 16 N/A
10:53 am 10:53 Mostly Cloudy 75 23.9 69 20.6 82 82 S 7 11 30.08 1019 10 16 N/A
11:53 am 11:53 Mostly Cloudy 76 24.4 69 20.6 79 79 S 10 17 30.10 1019 10 16 N/A
12:53 pm 12:53 Mostly Cloudy 76 24.4 69 20.6 79 79 S 9 15 30.09 1019 10 16 N/A
1:53 pm 13:53 Cloudy with Light Rain 75 23.9 70 21.1 84 84 SSW 6 9 30.10 1019 10 16 0.00 0.00
2:53 pm 14:53 Cloudy with Rain 74 23.3 71 21.7 91 91 SW 5 7 30.09 1019 7 11 0.07 1.78
3:11 pm 15:11 Cloudy with Rain 73 22.8 71 21.7 94 94 W 6 9 30.08 1019 10 16 0.03 0.76
3:53 pm 15:53 Cloudy with Light Rain 74 23.3 71 21.7 91 91 S 6 9 30.08 1019 10 16 0.08 2.03
4:53 pm 16:53 Cloudy with Light Rain 74 23.3 71 21.7 91 91 N N/A 30.07 1018 10 16 0.02 0.51
5:26 pm 17:26 Cloudy with Rain 73 22.8 71 21.7 94 94 S 5 7 30.07 1018 5 8 0.02 0.51
5:48 pm 17:48 Cloudy with Light Rain 72 22 70 21 94 94 S 8 13 30.07 1018 5 8 0.05 1.27
5:53 pm 17:53 Cloudy with Rain 72 22.2 69 20.6 91 91 SSW 10 17 30.08 1019 8 13 0.05 1.27
6:53 pm 18:53 Cloudy with Light Rain 71 21.7 68 20 90 90 SSW 6 9 30.08 1019 10 16 0.05 1.27
7:53 pm 19:53 Cloudy with Light Rain 70 21.1 67 19.4 90 90 S 6 9 30.08 1019 10 16 0.02 0.51
8:53 pm 20:53 Cloudy 70 21.1 67 19.4 90 90 SE 6 9 30.07 1018 10 16 0.01 0.25
9:53 pm 21:53 Mostly Clear 69 20.6 67 19.4 93 93 N N/A 30.06 1018 10 16 N/A
10:53 pm 22:53 Partly Cloudy 67 19.4 67 19.4 100 100 N N/A 30.05 1018 9 14 N/A
11:10 pm 23:10 Mostly Clear 67 19.4 66 18.9 97 97 N N/A 30.05 1018 7 11 N/A
11:53 pm 23:53 Mostly Clear 66 18.9 66 18.9 100 100 N N/A 30.04 1017 10 16 N/A

Powered by AerisWeather